Location: Aressy
(43.2833°N, 0.3167°W)
Time: 18:52:18
(UTC+00:00)

Okean-O - Pass Details

Date: 28 January 2021
Orbit: 638 x 641 km, 98.2° (Epoch: 02 March)

Event Time Altitude Azimuth Distance (km) Brightness Sun altitude
Rises 17:59:59 0° 142° (SE) 2,935 5.8 -9.7°
Reaches altitude 10° 18:02:19 10° 133° (SE) 2,030 4.9 -10.1°
Maximum altitude 18:06:18 34° 69° (ENE) 1,064 3.2 -10.8°
Drops below altitude 10° 18:10:18 10° 5° (N) 2,043 5.0 -11.5°
Sets 18:12:39 0° 356° (N) 2,957 5.9 -11.9°
